Weather Roundup
Issued by NWS Corpus Christi, TX

Home | Current Version | Previous Version | Text Only | Print | Product List | Glossary On
Versions: 1 2 3 4 5 6 7 8 9 10 11 12 13 14 15 16 17 18 19 20 21 22 23 24 25 26 27 28 29 30 31 32 33 34 35 36 37 38 39 40 41 42 43 44 45 46 47 48 49 50
000
ASUS44 KCRP 251510
HRRCRP

SOUTH TEXAS REGIONAL WEATHER ROUNDUP
NATIONAL WEATHER SERVICE CORPUS CHRISTI TX
1000 AM CDT WED MAY 25 2016


TXZ229>244-251600-
...CORPUS CHRISTI AREA OBSERVATIONS...

CITY           SKY/WX    TMP DP  RH WIND       PRES   REMARKS
CORPUS CHRISTI PTSUNNY   85  77  77 S14       29.98R HX  95
NAS CORPUS CHR PTSUNNY   85  80  85 SE15      29.98R HX  99
ROCKPORT       CLOUDY    84  77  79 SE15      30.00R HAZE    HX  94
KINGSVILLE NAS PTSUNNY   85  80  85 SE13      29.97R HX  99
ALICE          CLOUDY    85  76  74 S12G23    29.97R HX  94
FALFURRIAS     CLOUDY    85  76  76 S13       29.97R HX  94
$$

...VICTORIA AREA OBSERVATIONS...

CITY           SKY/WX    TMP DP  RH WIND       PRES   REMARKS
VICTORIA       CLOUDY    85  76  74 SE18      30.00S HX  94
BEEVILLE       PTSUNNY   83  79  87 S12G17    29.99R HX  95
PLEASANTON     CLOUDY    81  75  81 SE8       29.99R
SAN ANTONIO    CLOUDY    81  74  79 S14G20    30.00R
$$

...LAREDO AREA OBSERVATIONS...

CITY           SKY/WX    TMP DP  RH WIND       PRES   REMARKS
LAREDO         CLOUDY    84  75  74 SE17      29.97S HX  92
COTULLA        SUNNY     84  75  74 S13       29.96F HX  92
DEL RIO        CLOUDY    81  76  84 SE10      29.95F
MCALLEN        CLOUDY    87  77  72 SE13      29.96R HX  99
HEBBRONVILLE   CLOUDY    82  75  79 S10       30.00R HAZE
$$

...OTHER TEXAS OBSERVATIONS...

CITY           SKY/WX    TMP DP  RH WIND       PRES   REMARKS
BROWNSVILLE    CLOUDY    85  76  74 SE20      29.97R HX  94
HOUSTON        PTSUNNY   82  74  76 S9        30.04S
COL. STATION   CLOUDY    83  75  77 S15       30.01F HX  90
AUSTIN         CLOUDY    81  74  79 S13       30.00R
WACO           CLOUDY    82  73  74 S12       29.98F
FORT WORTH     CLOUDY    80  72  76 S16G24    29.97R
WICHITA FALLS  CLOUDY    78  72  81 S12       29.93R
LUBBOCK        MOSUNNY   76  56  49 W10       29.99R
EL PASO        SUNNY     77  27  15 W7        30.10R
$$

...MARINE OBSERVATIONS...

STATION/POSITION TIME  SKY/WX   TEMP    WIND        PRES    VSBY  WAVE   SWELL
                                AIR SEA DIR/SP/G                  HT/PER HT/PER
                 (UTC)          (F)     (DEG/KT/KT) (MB)    (MI)  (FT/S) (FT/S)
PORT ARANSAS     1500            81 81  110/ 13/ 14 1016.3R
BUOY 90 E PORT A 1450            81 81  130/ 17/ 19 1016.2R         5/ 6
BUOY 45 SE BAFFI 1450            81 82  150/ 12/ 14 1014.9R         4/ 6   3/ 6
BUOY 200 E PT IS 1450                                 N/A           5/ 7
BUOY 15 E GALVES 1450            80 80  140/ 12/ 14 1017.5R         3/ 6   2/ 6
$$




USA.gov is the U.S. government's official web portal to all federal, state and local government web resources and services.